Flag for Western Sahara Weather past 2 weeks in El Aaiún, Western Sahara

Now
68 °F

Scattered clouds.


Feels Like: 68 °F
Forecast: 57 / 70 °F
Wind: 18 mph from Northeast

Location: Laayoune/Hassan Isl

Current Time: Feb 27, 2015 at 3:36:40 PM

Latest Report: Feb 27, 2015 at 3:00 PM


Visibility: 5 mi

Pressure: 30.24 "Hg

Humidity: 56%

Dew point: 52 °F

Location of El AaiúnLocation

Historic Weather in El Aaiún — Graph

°F

El Aaiún temperature yesterday

Maximum temperature yesterday: 72 °F (at 3:00 PM)
Minimum temperature yesterday: 55 °F (at 8:00 AM)
Average temperature yesterday: 61 °F

Past Weeks' High & Low Weather Summary

 TemperatureHumidityPressure
High75 °F (Feb 25, 3:00 PM)94% (Feb 13, 3:00 AM)30.33 "Hg (Feb 13, 3:00 AM)
Low52 °F (Feb 13, 3:00 AM)35% (Feb 21, 2:00 PM)30.01 "Hg (Feb 18, 3:00 PM)
Average61 °F69%30.17 "Hg
* Reported Feb 12 2:00 PM — Feb 27 2:00 PM, El Aaiún, Weather by CustomWeather, © 2015

Note: Actual official high and low records may vary slightly from our data, if they occured in-between our weather recording intervals... More about our weather records

Advertising

El Aaiún weather history for previous 24 hours

 ConditionsComfort  
Time TempWeatherWind HumidityBarometerVisibility
2:00 PM
Fri, Feb 27
68 °FScattered clouds.20 mph56%30.24 "Hg5 mi
1:00 PM66 °FPartly sunny.18 mph60%30.30 "HgN/A
12:00 PM64 °FOvercast.18 mph60%30.33 "Hg5 mi
11:00 AM63 °FMild.18 mph64%30.33 "Hg5 mi
10:00 AM63 °FOvercast.20 mph64%30.30 "Hg5 mi
9:00 AM61 °FOvercast.23 mph68%30.30 "Hg5 mi
8:00 AM61 °FOvercast.16 mph68%30.27 "Hg5 mi
7:00 AM59 °FPassing clouds.16 mph72%30.24 "Hg5 mi
6:00 AM59 °FPassing clouds.13 mph77%30.24 "Hg5 mi
5:00 AM59 °FPassing clouds.14 mph72%30.21 "Hg5 mi
4:00 AM59 °FPassing clouds.16 mph72%30.24 "Hg5 mi
3:00 AM59 °FPassing clouds.15 mph72%30.24 "Hg5 mi
2:00 AM59 °FPassing clouds.17 mph72%30.27 "Hg5 mi
1:00 AM59 °FPassing clouds.17 mph77%30.27 "Hg5 mi
12:00 AM57 °FPassing clouds.18 mph88%30.27 "Hg5 mi
11:00 PM
Thu, Feb 26
57 °FPassing clouds.17 mph82%30.27 "Hg5 mi
10:00 PM57 °FClear.16 mph88%30.27 "Hg5 mi
9:00 PM59 °FClear.16 mph77%30.24 "Hg10 mi
8:00 PM61 °FClear.21 mph72%30.24 "Hg10 mi
7:00 PM61 °FSunny.20 mph72%30.21 "Hg10 mi
6:00 PM66 °FSunny.20 mph60%30.18 "Hg10 mi
5:00 PM68 °FSunny.18 mph53%30.18 "Hg10 mi
4:00 PM70 °FSunny.18 mph50%30.18 "Hg10 mi
3:00 PM72 °FSunny.18 mph47%30.18 "Hg10 mi
Weather by CustomWeather, © 2015

See weather overviewHow to use our weather pages